Temperature
20 19 19 19 19 19 19 19 19 19 19 19 19 19 19 19 19 19 19 19 19 19 19 19 19 19 19 19 19 19 19 19 19 19 19 19 19 19 19 19 19 19 19
21 20 19 19 19 19 19 19 19 19 19 19 19 19 19 19 19 19 19 19 19 19 19 19 19 19 19 19 19 19 19 19 19 19 19 19 19 19 19 19 19 19 19
20 20 20 19 19 19 19 19 19 19 19 19 19 19 19 19 19 19 19 19 19 19 19 19 19 19 19 19 19 19 19 19 18 18 19 19 19 19 19 19 19 19 19
20 20 20 19 19 19 19 19 19 19 19 18 18 18 19 19 19 19 19 19 19 19 19 19 19 18 18 18 18 18 18 18 18 18 18 19 19 19 19 19 19 19 19
20 20 20 19 19 19 19 19 19 19 19 19 18 18 19 19 19 19 19 19 19 19 19 19 18 18 18 18 18 18 18 18 18 18 18 18 19 19 19 19 19 19 18
20 20 20 19 19 19 19 19 19 19 19 18 18 18 18 18 19 19 19 19 19 19 19 18 18 18 18 18 18 18 18 18 18 18 18 18 18 18 18 18 18 18 18
20 20 19 19 19 19 19 19 19 19 18 18 18 18 18 18 18 18 19 19 19 18 18 18 18 18 18 18 18 18 18 18 18 18 18 18 18 18 18 18 18 18 18
20 20 19 19 19 19 19 19 19 18 18 18 18 18 18 18 18 18 18 19 19 18 18 18 18 18 17 17 17 18 18 18 18 18 18 18 18 18 18 18 18 18 18
20 20 20 19 19 19 19 19 18 18 18 18 18 18 18 18 18 18 18 18 18 18 18 18 18 17 17 17 17 17 17 18 18 18 18 18 18 18 18 18 18 18 18
19 20 20 20 19 19 19 18 18 18 18 18 18 18 18 18 18 18 18 18 18 18 18 18 18 17 17 17 17 17 17 17 17 17 18 18 18 18 18 18 18 18 18
19 20 20 20 19 19 19 18 18 18 18 18 18 18 18 18 18 18 18 18 18 18 18 18 17 17 17 17 17 17 17 17 17 17 17 18 18 18 18 18 18 18 18
20 20 20 20 19 19 19 19 18 18 18 18 18 18 18 18 18 18 18 18 18 18 17 17 17 17 17 17 17 17 17 17 17 17 17 17 18 18 18 18 18 18 18
20 20 20 20 19 19 19 19 19 18 18 18 19 18 18 18 18 18 18 18 18 17 17 17 17 17 17 17 17 17 16 16 16 16 17 17 17 18 18 18 18 18 18
21 20 20 20 19 19 19 19 19 19 19 19 19 18 18 18 18 18 18 18 18 17 17 17 17 17 17 16 16 16 16 16 16 16 16 17 17 17 17 17 17 17 17
21 21 20 20 20 19 19 19 19 19 19 19 19 18 18 18 18 18 18 18 17 17 17 17 17 17 17 17 16 16 16 17 16 16 16 16 17 17 17 17 17 17 17
22 21 21 20 20 20 19 19 19 19 19 19 19 18 18 18 18 18 18 18 17 17 17 17 17 17 17 17 16 16 16 17 17 16 16 16 16 16 16 17 17 17 17
22 22 21 21 20 20 20 19 19 19 19 19 19 18 18 18 18 18 18 18 17 17 17 17 17 17 17 17 17 16 16 16 16 17 16 16 16 16 16 16 16 17 17
23 22 22 21 21 20 20 20 19 19 19 19 19 18 18 18 17 17 18 18 17 17 17 17 17 17 17 17 17 16 16 16 16 16 16 16 16 16 16 16 16 16 17
23 23 22 22 22 21 20 20 20 19 19 19 19 18 18 18 17 17 17 17 17 17 17 17 17 17 17 17 17 16 16 16 16 16 16 16 16 16 16 16 16 17 17
23 23 23 22 22 21 21 20 19 19 19 19 19 18 18 18 18 18 17 17 17 17 17 17 17 17 17 17 16 16 16 16 16 16 16 16 16 16 16 16 17 17 17
23 23 23 23 22 22 21 20 20 20 19 19 19 18 18 18 18 18 18 17 17 17 17 17 17 16 16 16 16 16 16 16 16 16 16 16 16 16 16 16 16 17 17
24 24 24 23 23 22 21 21 20 20 19 19 19 18 18 18 18 18 18 17 17 17 17 17 16 16 16 16 16 16 16 16 16 16 16 16 16 16 16 16 16 16 16
23 24 24 23 23 22 22 21 20 20 19 19 19 18 18 18 18 17 17 17 17 17 17 17 16 16 16 16 16 16 16 16 16 16 16 16 16 16 16 16 16 16 16
23 23 22 22 22 22 21 20 20 19 19 19 19 18 18 18 17 17 17 17 17 17 17 17 16 16 16 15 15 15 16 16 16 16 16 16 16 16 16 15 15 15 15
22 21 21 21 20 20 20 19 19 19 19 18 18 18 17 17 17 17 17 17 16 16 16 16 16 16 16 15 15 15 15 15 15 16 16 16 16 16 16 15 15 15 15
20 20 20 19 19 19 18 18 18 18 18 18 18 17 17 17 17 17 17 16 16 16 16 16 16 16 15 15 15 15 15 15 15 15 16 16 16 16 16 15 15 15 15
Wind_Speed
5 7 13 13 12 12 13 14 14 15 15 15 15 15 15 14 13 12 11 11 10 10 10 10 9 9 9 9 9 9 9 9 9 9 8 8 7 7 7 7 7 5 5
9 11 15 14 13 12 12 13 14 14 14 14 15 15 14 13 13 12 11 11 10 10 10 9 9 9 9 9 9 8 8 8 8 8 7 7 7 8 8 8 7 6 7
13 12 15 15 13 12 12 13 13 13 14 14 15 15 14 13 12 11 11 10 10 9 9 9 9 9 9 8 8 7 7 7 6 7 6 5 6 7 8 8 8 8 8
14 13 14 15 14 13 12 12 13 13 14 14 15 14 13 12 11 11 10 10 10 9 9 8 8 8 8 8 7 6 5 4 4 6 5 4 4 6 7 8 8 8 8
11 12 14 16 14 13 12 12 13 13 14 14 14 13 12 12 11 10 10 10 9 9 9 8 8 8 8 8 7 6 4 3 4 6 5 4 4 5 6 7 7 7 7
10 11 14 16 14 13 13 13 13 13 14 14 14 13 12 11 10 9 9 9 9 8 8 8 8 8 8 7 6 5 5 7 8 7 6 5 4 5 6 6 6 6 8
10 10 13 16 15 14 13 13 13 13 13 14 13 13 12 11 10 9 8 8 7 7 7 7 7 8 8 7 6 6 8 8 8 6 5 4 3 4 5 6 6 6 8
11 9 12 15 15 14 14 14 13 13 13 13 13 13 12 11 10 8 7 7 6 5 5 5 6 7 8 7 7 7 8 7 7 6 5 3 3 4 5 5 6 7 8
8 7 8 12 14 14 14 14 13 13 13 13 13 13 12 11 10 8 7 6 5 4 3 4 5 6 7 6 6 5 5 7 7 5 4 3 3 4 5 5 6 6 7
7 7 6 9 11 11 12 14 14 13 13 13 12 12 12 11 10 9 7 6 5 4 3 3 4 5 6 6 5 4 6 7 6 5 4 3 4 5 5 5 6 6 7
8 6 7 6 8 9 10 12 13 13 13 13 12 12 10 8 8 7 7 6 5 3 3 3 4 5 7 7 5 5 7 6 5 4 3 3 4 5 5 5 6 7 7
10 8 7 7 6 8 9 10 10 10 11 11 10 9 9 8 7 6 7 7 5 4 2 2 4 6 7 7 5 5 6 5 3 2 1 1 3 4 4 5 5 6 6
9 9 9 7 6 6 5 7 7 8 9 10 10 10 9 7 5 4 3 2 2 3 4 4 5 5 5 5 5 5 5 4 3 3 3 1 2 3 4 4 4 5 5
8 10 10 9 7 6 6 5 6 6 6 6 9 10 8 5 4 4 3 2 2 3 2 2 2 2 3 4 5 5 4 3 2 2 3 1 2 3 4 5 4 4 5
10 11 10 11 9 7 6 5 5 5 6 8 9 10 10 5 4 3 3 3 3 2 1 1 1 0 3 4 4 4 3 3 2 3 4 2 1 2 4 4 4 3 4
12 12 11 12 11 9 7 6 6 6 8 9 9 10 11 8 5 4 3 3 4 4 3 2 1 2 3 4 4 4 3 3 3 3 4 4 4 4 4 4 4 4 4
12 12 12 13 12 11 10 9 6 7 8 6 8 11 11 9 7 5 4 4 4 5 4 2 3 3 4 4 5 4 3 3 3 4 4 5 5 5 5 5 5 5 5
10 12 13 13 13 13 11 9 5 6 7 6 9 10 12 12 10 6 4 4 5 6 4 3 3 3 3 4 4 3 3 2 2 3 4 6 6 7 7 7 7 6 6
13 13 13 13 14 14 11 8 6 5 6 7 9 9 11 13 12 8 5 4 5 4 3 4 2 3 3 4 4 2 2 2 1 2 3 4 6 7 7 8 9 8 7
13 13 14 13 12 11 9 6 5 5 5 5 6 8 11 12 13 10 5 5 4 3 3 4 4 2 3 4 3 2 1 1 0 0 1 2 3 4 5 5 6 7 7
15 15 15 14 12 10 7 7 6 5 5 5 5 8 10 11 11 9 6 5 4 4 4 4 3 3 2 3 3 2 2 2 1 1 1 0 0 1 2 2 2 3 4
18 18 16 15 13 12 9 6 3 3 3 3 3 5 8 9 10 9 7 7 6 5 5 6 4 3 2 3 4 3 0 3 2 2 2 3 2 1 1 1 1 1 2
15 16 14 13 11 10 8 5 4 3 3 2 3 4 5 7 8 7 7 7 7 7 7 7 7 7 5 3 2 4 4 5 2 2 2 3 3 3 3 4 4 3 2
10 9 9 10 10 9 8 6 5 4 4 5 3 3 4 5 6 6 6 6 7 6 7 8 8 6 6 5 2 1 1 3 3 2 2 2 3 4 5 4 6 6 5
5 8 9 12 11 9 7 4 3 2 2 2 3 4 4 3 4 5 6 5 6 6 7 8 8 8 7 6 5 3 1 1 1 3 2 3 2 4 5 5 5 8 9
9 10 11 13 11 9 6 2 4 4 4 4 4 4 3 2 2 4 4 5 5 5 6 7 8 9 8 7 6 5 4 3 4 3 3 3 3 3 3 4 5 8 11
Wind_Direction
169 177 161 150 145 143 144 142 140 135 131 128 126 125 122 119 116 114 111 110 111 112 114 115 110 106 103 103 108 118 130 133 132 128 124 118 111 111 112 110 96 88 97
153 166 159 154 149 146 144 143 143 140 136 132 129 127 124 121 118 116 114 111 110 110 111 114 113 110 107 105 107 114 122 127 129 126 118 109 104 105 107 100 94 88 92
148 161 158 156 153 150 146 144 144 143 140 136 133 129 126 123 121 119 118 116 114 113 114 115 116 114 112 107 105 109 117 125 130 128 109 95 98 102 102 98 93 90 93
151 157 157 159 156 153 151 148 146 146 143 140 137 134 131 128 125 123 121 119 117 115 114 114 114 114 111 104 101 101 105 122 143 132 115 102 95 108 106 102 97 96 97
150 153 161 161 159 156 155 152 150 149 147 143 140 138 136 132 128 124 123 121 117 114 109 106 106 107 105 100 94 92 96 102 112 111 119 113 99 118 115 111 107 112 110
150 154 167 165 163 161 159 155 152 151 150 148 145 143 139 135 131 128 127 126 122 116 108 100 96 95 93 85 75 74 86 84 80 87 100 114 117 128 122 122 124 134 128
152 159 173 169 168 166 163 159 156 154 153 152 151 148 144 142 138 137 136 134 131 123 111 99 89 84 78 66 57 76 98 89 83 79 84 101 124 137 134 135 139 141 137
158 161 173 173 172 171 168 164 161 159 158 157 156 154 151 148 145 146 146 145 142 135 119 99 81 73 64 55 53 78 102 93 87 77 75 86 142 144 143 142 141 141 141
159 160 168 173 174 175 173 170 167 165 164 162 161 159 157 154 152 153 155 156 154 147 132 101 76 64 55 48 48 72 105 99 89 73 70 70 131 142 144 140 136 140 144
161 166 164 167 169 171 174 175 173 170 169 167 165 163 163 160 158 159 162 165 163 157 137 99 72 60 54 49 50 76 116 102 87 73 61 76 110 120 122 124 129 136 142
176 173 168 165 164 163 169 178 175 174 173 170 170 170 164 157 156 157 165 173 171 160 131 91 69 64 62 48 51 92 104 101 92 73 53 88 107 113 116 118 124 130 140
188 184 174 171 163 162 172 171 166 167 169 165 165 163 153 154 158 160 178 180 178 162 122 79 58 64 63 52 62 92 99 94 73 42 358 127 125 122 120 123 125 131 139
189 187 182 177 167 165 161 156 156 155 156 157 160 158 157 157 161 157 162 161 114 104 66 41 46 59 66 65 76 91 94 79 50 10 325 241 165 148 140 136 140 144 149
181 188 183 180 173 173 164 161 159 156 158 161 165 166 161 160 165 162 164 153 113 92 69 24 27 67 102 98 98 95 83 68 43 7 334 305 186 171 158 150 153 167 168
192 191 184 179 177 173 168 170 169 168 169 170 171 176 176 173 179 174 171 171 164 155 157 331 339 121 145 139 126 112 88 68 49 27 7 15 81 140 151 152 147 156 170
199 195 185 182 180 175 177 180 179 177 174 173 179 185 189 191 187 178 177 182 187 185 193 202 177 152 150 143 133 122 101 80 61 50 39 36 55 81 104 123 128 124 122
202 195 190 187 181 181 184 188 184 181 176 178 186 191 195 202 201 191 189 198 195 183 180 154 116 114 124 128 130 127 118 101 79 60 56 55 54 66 86 94 99 106 109
200 196 196 194 186 188 189 188 183 179 179 184 187 191 199 206 208 199 203 214 191 168 161 145 129 111 122 133 138 143 136 131 102 72 60 59 59 59 70 83 87 94 98
202 198 196 196 188 190 188 186 185 178 184 186 186 191 201 206 207 202 211 217 186 160 162 164 146 141 150 150 144 133 149 164 146 98 63 54 58 61 63 69 72 74 83
205 199 197 197 190 183 176 168 173 188 195 186 186 194 198 205 206 203 209 217 188 172 177 168 155 143 144 148 127 89 44 279 228 128 87 56 56 58 64 67 66 63 67
208 202 198 195 186 174 170 174 178 198 198 199 198 194 195 200 202 199 205 201 190 195 196 175 148 152 140 132 103 64 13 4 252 236 202 165 83 45 62 60 54 56 57
210 205 198 193 185 180 182 172 159 155 178 190 191 189 192 191 193 199 194 194 189 192 192 182 163 156 161 162 141 125 44 329 306 235 214 211 212 226 246 243 257 9 59
214 205 195 185 175 167 151 131 106 96 91 133 187 197 194 189 190 193 191 188 188 187 194 190 181 175 176 193 191 153 159 214 263 297 251 221 202 208 235 243 236 232 212
202 182 162 148 139 132 129 145 172 180 191 199 188 186 179 184 188 194 191 188 190 191 194 193 186 181 170 182 196 161 149 150 164 253 300 257 216 217 223 230 229 227 222
134 124 119 114 113 110 112 152 197 198 183 151 148 158 164 177 189 192 192 190 195 198 200 192 184 186 185 184 176 159 133 92 149 164 239 278 271 236 220 220 225 224 223
90 101 107 107 104 102 108 153 206 198 181 164 160 158 159 168 183 191 188 193 200 200 201 197 193 193 195 191 186 174 169 179 193 177 185 225 248 260 231 219 218 220 220
Height
1510 1513 1515 1518 1519 1521 1523 1525 1526 1527 1528 1529 1530 1531 1532 1533 1534 1535 1535 1536 1536 1536 1537 1538 1538 1539 1540 1540 1541 1542 1543 1544 1545 1546 1546 1547 1547 1547 1547 1547 1547 1547 1547
1510 1513 1516 1518 1520 1522 1524 1526 1527 1528 1529 1530 1531 1532 1533 1534 1535 1536 1537 1537 1537 1538 1538 1539 1540 1540 1541 1542 1542 1543 1544 1545 1546 1547 1547 1548 1548 1549 1549 1549 1549 1548 1548
1510 1513 1516 1519 1521 1523 1525 1526 1528 1529 1530 1531 1532 1533 1535 1536 1536 1537 1538 1538 1539 1539 1539 1540 1540 1541 1542 1543 1544 1544 1545 1546 1547 1548 1548 1549 1549 1550 1550 1550 1550 1550 1549
1511 1514 1516 1519 1521 1523 1525 1526 1528 1529 1530 1532 1533 1534 1536 1537 1537 1538 1539 1539 1540 1540 1541 1541 1541 1542 1543 1544 1545 1545 1546 1547 1548 1549 1549 1550 1550 1550 1551 1551 1551 1551 1551
1512 1514 1517 1519 1521 1523 1525 1526 1528 1529 1531 1532 1534 1535 1536 1537 1538 1539 1539 1540 1540 1541 1542 1542 1542 1543 1544 1545 1546 1547 1548 1548 1549 1550 1550 1550 1551 1551 1552 1552 1552 1552 1552
1512 1515 1517 1519 1521 1523 1525 1526 1528 1530 1531 1533 1534 1535 1537 1538 1539 1539 1540 1540 1541 1542 1542 1543 1543 1544 1544 1545 1547 1548 1549 1549 1550 1550 1551 1551 1552 1552 1552 1553 1553 1553 1553
1512 1515 1517 1520 1521 1523 1525 1526 1528 1530 1531 1533 1534 1536 1537 1538 1539 1539 1540 1541 1541 1542 1543 1544 1544 1545 1545 1546 1547 1548 1549 1550 1550 1550 1551 1551 1552 1552 1553 1554 1554 1554 1555
1513 1515 1517 1520 1522 1523 1525 1526 1528 1530 1532 1533 1534 1535 1537 1538 1539 1539 1540 1541 1542 1543 1543 1544 1545 1545 1546 1547 1548 1549 1550 1550 1551 1551 1551 1552 1552 1553 1554 1554 1555 1555 1555
1514 1515 1517 1519 1521 1523 1525 1527 1528 1530 1532 1533 1534 1535 1536 1537 1538 1539 1540 1541 1542 1543 1544 1544 1545 1546 1546 1548 1549 1550 1551 1551 1551 1551 1551 1552 1553 1553 1554 1555 1555 1556 1556
1514 1515 1517 1519 1521 1523 1525 1526 1528 1530 1531 1533 1534 1536 1536 1537 1538 1539 1540 1541 1542 1543 1544 1545 1545 1546 1547 1548 1549 1550 1551 1552 1552 1552 1552 1552 1553 1553 1554 1555 1555 1556 1557
1513 1514 1516 1518 1520 1522 1524 1526 1528 1530 1531 1533 1534 1536 1537 1537 1538 1539 1540 1541 1542 1543 1544 1545 1546 1546 1547 1549 1550 1551 1552 1552 1552 1552 1552 1552 1553 1553 1554 1555 1555 1556 1556
1511 1513 1515 1517 1519 1521 1523 1525 1527 1529 1530 1532 1534 1535 1536 1537 1538 1539 1540 1541 1542 1544 1545 1546 1546 1547 1548 1550 1551 1552 1553 1553 1553 1552 1552 1552 1552 1553 1554 1554 1555 1556 1556
1511 1512 1514 1516 1518 1520 1522 1524 1526 1528 1530 1531 1533 1535 1536 1537 1538 1539 1540 1541 1542 1544 1545 1546 1547 1548 1550 1551 1552 1553 1553 1553 1552 1552 1552 1552 1552 1552 1553 1554 1555 1555 1556
1510 1512 1514 1515 1517 1519 1521 1523 1525 1527 1529 1530 1532 1534 1535 1537 1538 1539 1540 1541 1543 1545 1546 1547 1549 1549 1551 1552 1553 1553 1552 1552 1551 1551 1552 1552 1552 1552 1553 1553 1554 1555 1555
1509 1511 1513 1514 1516 1518 1519 1521 1523 1525 1527 1529 1531 1533 1535 1537 1538 1539 1540 1542 1544 1545 1547 1548 1549 1550 1551 1552 1553 1553 1552 1552 1551 1551 1551 1552 1552 1552 1552 1553 1553 1554 1555
1507 1509 1511 1513 1515 1516 1518 1520 1522 1524 1526 1528 1530 1533 1535 1536 1538 1539 1540 1542 1544 1545 1547 1548 1549 1550 1551 1552 1553 1553 1553 1552 1551 1551 1551 1551 1552 1552 1552 1552 1553 1553 1554
1505 1508 1510 1512 1513 1515 1517 1519 1521 1523 1525 1527 1529 1531 1534 1536 1537 1539 1540 1542 1544 1545 1547 1548 1549 1550 1551 1551 1552 1553 1553 1553 1552 1552 1552 1552 1552 1552 1552 1552 1553 1553 1554
1504 1506 1508 1510 1511 1513 1515 1517 1519 1521 1523 1525 1527 1530 1532 1535 1537 1538 1540 1541 1543 1545 1546 1547 1548 1549 1550 1551 1552 1552 1552 1553 1553 1553 1552 1552 1552 1552 1552 1553 1553 1553 1553
1501 1503 1505 1507 1509 1511 1513 1516 1518 1520 1522 1524 1526 1528 1530 1533 1535 1536 1538 1540 1542 1544 1545 1546 1547 1549 1550 1550 1551 1551 1552 1552 1552 1553 1553 1552 1553 1553 1553 1553 1553 1553 1553
1496 1499 1501 1504 1506 1509 1511 1514 1516 1518 1520 1522 1524 1526 1528 1530 1532 1534 1536 1538 1540 1541 1543 1544 1546 1547 1549 1549 1550 1550 1551 1551 1552 1552 1552 1552 1552 1553 1553 1553 1553 1553 1553
1491 1494 1496 1499 1502 1505 1508 1510 1513 1515 1518 1520 1522 1524 1526 1527 1529 1530 1533 1535 1536 1538 1540 1541 1543 1545 1546 1548 1549 1549 1550 1550 1550 1551 1551 1551 1551 1552 1552 1553 1553 1553 1553
1483 1486 1489 1493 1497 1501 1504 1508 1511 1514 1516 1518 1520 1522 1523 1524 1526 1527 1529 1530 1532 1534 1536 1538 1539 1541 1543 1545 1546 1547 1548 1549 1548 1549 1549 1550 1550 1551 1552 1552 1552 1553 1553
1476 1479 1482 1486 1491 1496 1501 1506 1509 1512 1514 1516 1517 1519 1520 1521 1523 1524 1525 1527 1528 1530 1532 1533 1535 1537 1539 1541 1543 1545 1545 1544 1545 1546 1547 1548 1549 1550 1551 1551 1552 1552 1552
1470 1473 1477 1481 1486 1492 1497 1503 1506 1509 1511 1513 1515 1517 1518 1519 1520 1521 1522 1523 1524 1526 1527 1528 1530 1532 1534 1536 1538 1540 1542 1542 1543 1543 1544 1545 1546 1547 1549 1550 1551 1551 1552
1466 1470 1473 1476 1481 1488 1494 1501 1504 1507 1509 1511 1512 1513 1514 1515 1517 1518 1519 1520 1521 1522 1523 1524 1525 1527 1528 1531 1533 1535 1537 1539 1540 1541 1541 1542 1543 1545 1546 1548 1549 1550 1550
1464 1467 1471 1473 1478 1484 1491 1497 1502 1505 1507 1508 1509 1510 1512 1513 1514 1515 1516 1517 1518 1518 1519 1520 1521 1522 1523 1525 1527 1529 1531 1533 1535 1537 1538 1539 1540 1542 1543 1545 1546 1547 1548